This is the latest recevied weather packets stored in our database for station/object s59zo-6. If no packets are shown the sender has not sent any weather packets the latest 10 day(s).
| Time | Temp. | Humidity | Pressure | Rain* | Wind** | Luminosity | Snow |
|---|---|---|---|---|---|---|---|
| 1788603605 | 30° C | 39% | 1017.4 hPa | 0 mm | - | - | - |
| 1788603304 | 30° C | 38% | 1017.4 hPa | 0 mm | - | - | - |
| 1788603005 | 30° C | 38% | 1017.3 hPa | 0 mm | - | - | - |
| 1788602704 | 29.44° C | 38% | 1017.3 hPa | 0 mm | - | - | - |
| 1788602405 | 29.44° C | 38% | 1017.4 hPa | 0 mm | - | - | - |
| 1788602105 | 29.44° C | 37% | 1017.5 hPa | 0 mm | - | - | - |
| 1788601805 | 28.89° C | 37% | 1017.4 hPa | 0 mm | - | - | - |
| 1788601504 | 28.89° C | 39% | 1017.5 hPa | 0 mm | - | - | - |
| 1788601204 | 28.89° C | 40% | 1017.4 hPa | 0 mm | - | - | - |
| 1788600904 | 28.89° C | 39% | 1017.6 hPa | 0 mm | - | - | - |
| 1788600605 | 28.89° C | 39% | 1017.6 hPa | 0 mm | - | - | - |
| 1788600304 | 28.89° C | 39% | 1017.5 hPa | 0 mm | - | - | - |
| 1788600004 | 28.89° C | 39% | 1017.7 hPa | 0 mm | - | - | - |
| 1788599705 | 28.89° C | 37% | 1017.4 hPa | 0 mm | - | - | - |
| 1788599405 | 28.89° C | 36% | 1017.5 hPa | 0 mm | - | - | - |
| 1788597005 | 26.11° C | 47% | 1017.3 hPa | 0 mm | - | - | - |
| 1788596704 | 26.11° C | 48% | 1017.5 hPa | 0 mm | - | - | - |
| 1788596404 | 25.56° C | 50% | 1017.3 hPa | 0 mm | - | - | - |
| 1788596104 | 25° C | 51% | 1017.3 hPa | 0 mm | - | - | - |
| 1788595804 | 25° C | 53% | 1017.2 hPa | 0 mm | - | - | - |
| 1788595503 | 24.44° C | 54% | 1017.4 hPa | 0 mm | - | - | - |
| 1788595205 | 24.44° C | 54% | 1017.1 hPa | 0 mm | - | - | - |
| 1788594904 | 24.44° C | 53% | 1017.1 hPa | 0 mm | - | - | - |
| 1788594605 | 23.89° C | 54% | 1017.1 hPa | 0 mm | - | - | - |
| 1788594304 | 23.89° C | 54% | 1017 hPa | 0 mm | - | - | - |
* Rain latest hour (hover to see other rain measurements)
** Current wind speed in m/s (hover to see current wind gust speed)